Погода в Калабаре

Нигерия     4°58′32″N   8°20′43″E
темп.,
°C
ветер,
м/с
пор.,
м/с
влажн.,
%
обл.,
%
осадки,
мм/ч
давл.,
гПа
погр.,
м
11 мая, вт
вт1101:00+24ююв019359 0.0 101211
04:00+24сз119655 0.0 101112
07:00+25ссз009399 0.0 101363
10:00+31ю116756 0.3 10141018
13:00+33ю2255100 0.5 10111751
16:00+30ю3367100 0.6 1009847
19:00+26ююз278498 0.9 1011248
22:00+26ю1588100 0.0 1013223
12 мая, ср
ср1201:00+25юз2492100 1.7 1012134
04:00+24юз1598100 9.1 1011199
07:00+25ююз1295100 9.2 1013103
10:00+26ююз1492100 0.0 1013321
13:00+29ююз2274100 0.2 1011790
16:00+30ююз336833 0.1 1009893
19:00+26ююз24855 0.1 101087
22:00+25ююз259095 0.0 1012127
13 мая, чт
чт1301:00+24юз239114 0.0 101275
04:00+24юз1192100 0.0 101122
07:00+24всв1189100 0.0 101251
10:00+27всв1280100 0.1 1013348
13:00+28юв1377100 0.1 1010360
16:00+27всв248499 0.0 1008356
19:00+26ю118562 0.1 101016
22:00+24ююв11905 0.0 101122
14 мая, пт
пт1401:00+24юз119317 0.0 101011
04:00+23ссв11955 0.0 101011
07:00+24ссв119135 0.0 101254
10:00+31ююв126276 0.0 1012943
13:00+32вюв115652 0.0 10101386
16:00+28с247798 0.0 1007228
19:00+27ююз118189 0.0 100827
22:00+25ююв1186100 0.0 101029
15 мая, сб
сб1501:00+25юв0189100 0.0 101012
04:00+24ссв0193100 0.2 101012
07:00+24всв009675 3.6 101156
10:00+29ю0176100 0.4 1013726
13:00+30св2272100 3.9 1011779
16:00+29ююз228393 5.1 1008138
19:00+26ю279213 5.1 1008202
22:00+25юв1193100 0.0 101114